EN

Hourly Weather Ladispoli

Today, 1 August, Sunday

Time Temperature Precipitation Wind Pressure Humidity
00:00 +27°C° 0 mm 4 mps 756 mmHg 77%
01:00 +27°C° 0 mm 5 mps 756 mmHg 74%
02:00 +27°C° 0 mm 4 mps 756 mmHg 78%
03:00 +26°C° 0 mm 3 mps 755 mmHg 81%
04:00 +26°C° 0 mm 2 mps 755 mmHg 84%
05:00 +27°C° 0 mm 3 mps 755 mmHg 77%
06:00 +28°C° 0 mm 4 mps 756 mmHg 70%
07:00 +29°C° 0 mm 4 mps 756 mmHg 63%
08:00 +32°C° 0 mm 5 mps 756 mmHg 59%
09:00 +33°C° 0 mm 5 mps 756 mmHg 55%
10:00 +34°C° 0 mm 6 mps 756 mmHg 51%
11:00 +34°C° 0 mm 6 mps 756 mmHg 50%
12:00 +34°C° 0 mm 6 mps 756 mmHg 49%
13:00 +34°C° 0 mm 6 mps 756 mmHg 49%
14:00 +34°C° 0 mm 6 mps 756 mmHg 49%
15:00 +33°C° 0 mm 6 mps 756 mmHg 50%
16:00 +33°C° 0 mm 6 mps 756 mmHg 51%
17:00 +30°C° 0 mm 5 mps 757 mmHg 55%
18:00 +29°C° 0 mm 4 mps 757 mmHg 60%
19:00 +28°C° 0 mm 4 mps 757 mmHg 64%
20:00 +26°C° 0 mm 4 mps 757 mmHg 69%
21:00 +25°C° 0 mm 4 mps 757 mmHg 75%
22:00 +23°C° 0 mm 4 mps 758 mmHg 80%
23:00 +23°C° 0 mm 4 mps 758 mmHg 81%

Tomorrow, 2 August, Monday

Time Temperature Precipitation Wind Pressure Humidity
00:00 +22°C° 0 mm 5 mps 758 mmHg 81%
01:00 +22°C° 0 mm 5 mps 758 mmHg 82%
02:00 +22°C° 0 mm 5 mps 758 mmHg 83%
03:00 +21°C° 0 mm 4 mps 758 mmHg 83%
04:00 +21°C° 0 mm 4 mps 758 mmHg 84%
05:00 +22°C° 0 mm 4 mps 758 mmHg 78%
06:00 +25°C° 0 mm 4 mps 759 mmHg 71%
07:00 +26°C° 0 mm 4 mps 759 mmHg 65%
08:00 +27°C° 0 mm 4 mps 759 mmHg 57%
09:00 +29°C° 0 mm 3 mps 759 mmHg 49%
10:00 +30°C° 0 mm 3 mps 760 mmHg 42%
11:00 +32°C° 0 mm 4 mps 760 mmHg 41%
12:00 +32°C° 0 mm 5 mps 760 mmHg 40%
13:00 +32°C° 0 mm 6 mps 760 mmHg 39%
14:00 +32°C° 0 mm 5 mps 760 mmHg 40%
15:00 +30°C° 0 mm 5 mps 760 mmHg 41%
16:00 +30°C° 0 mm 4 mps 760 mmHg 42%
17:00 +29°C° 0 mm 3 mps 760 mmHg 46%
18:00 +28°C° 0 mm 2 mps 760 mmHg 49%
19:00 +26°C° 0 mm 1 mps 760 mmHg 53%
20:00 +25°C° 0 mm 1 mps 760 mmHg 58%
21:00 +24°C° 0 mm 1 mps 760 mmHg 63%
22:00 +23°C° 0 mm 1 mps 761 mmHg 68%
23:00 +22°C° 0 mm 1 mps 761 mmHg 70%

Day after tomorrow, 3 August, Tuesday

Time Temperature Precipitation Wind Pressure Humidity
00:00 +22°C° 0 mm 1 mps 761 mmHg 72%
01:00 +21°C° 0 mm 2 mps 762 mmHg 74%
02:00 +21°C° 0 mm 2 mps 761 mmHg 73%
03:00 +21°C° 0 mm 2 mps 761 mmHg 72%
04:00 +22°C° 0 mm 1 mps 761 mmHg 70%
05:00 +23°C° 0 mm 2 mps 761 mmHg 65%
06:00 +24°C° 0 mm 2 mps 762 mmHg 59%
07:00 +25°C° 0 mm 3 mps 762 mmHg 53%
08:00 +26°C° 0.1 mm 3 mps 762 mmHg 50%
09:00 +27°C° 0.1 mm 3 mps 761 mmHg 47%
10:00 +28°C° 0.1 mm 3 mps 760 mmHg 45%
11:00 +29°C° 0.1 mm 3 mps 760 mmHg 44%
12:00 +29°C° 0.1 mm 3 mps 760 mmHg 44%
13:00 +30°C° 0.1 mm 3 mps 760 mmHg 44%
14:00 +32°C° 0 mm 4 mps 760 mmHg 42%
15:00 +33°C° 0 mm 4 mps 760 mmHg 39%
16:00 +34°C° 0 mm 5 mps 759 mmHg 37%
17:00 +33°C° 0 mm 4 mps 759 mmHg 40%
18:00 +30°C° 0 mm 3 mps 759 mmHg 43%
19:00 +29°C° 0 mm 2 mps 759 mmHg 46%
20:00 +28°C° 0 mm 2 mps 759 mmHg 49%
21:00 +26°C° 0 mm 2 mps 759 mmHg 52%
22:00 +25°C° 0 mm 2 mps 759 mmHg 56%
23:00 +25°C° 0 mm 2 mps 759 mmHg 56%

4 August, Wednesday

Time Temperature Precipitation Wind Pressure Humidity
00:00 +24°C° 0 mm 2 mps 759 mmHg 56%
01:00 +24°C° 0 mm 2 mps 759 mmHg 55%
02:00 +24°C° 0 mm 2 mps 759 mmHg 55%
03:00 +24°C° 0 mm 2 mps 758 mmHg 55%
04:00 +24°C° 0 mm 2 mps 758 mmHg 55%
05:00 +25°C° 0 mm 2 mps 758 mmHg 51%
06:00 +26°C° 0 mm 2 mps 758 mmHg 47%
07:00 +28°C° 0 mm 1 mps 759 mmHg 43%
08:00 +30°C° 0 mm 2 mps 759 mmHg 40%
09:00 +33°C° 0 mm 3 mps 759 mmHg 37%
10:00 +34°C° 0 mm 3 mps 759 mmHg 35%
11:00 +35°C° 0 mm 3 mps 759 mmHg 34%
12:00 +35°C° 0 mm 3 mps 758 mmHg 34%
13:00 +36°C° 0 mm 3 mps 758 mmHg 34%
14:00 +35°C° 0 mm 3 mps 758 mmHg 35%
15:00 +35°C° 0 mm 3 mps 758 mmHg 36%
16:00 +34°C° 0 mm 3 mps 758 mmHg 37%
17:00 +31°C° 0 mm 3 mps 758 mmHg 42%
18:00 +30°C° 0 mm 3 mps 758 mmHg 48%
19:00 +28°C° 0 mm 2 mps 758 mmHg 54%
20:00 +27°C° 0 mm 2 mps 758 mmHg 60%
21:00 +26°C° 0 mm 2 mps 758 mmHg 65%
22:00 +24°C° 0 mm 1 mps 758 mmHg 71%
23:00 +24°C° 0 mm 1 mps 758 mmHg 72%

5 August, Thursday

Time Temperature Precipitation Wind Pressure Humidity
00:00 +24°C° 0 mm 1 mps 758 mmHg 72%
01:00 +24°C° 0 mm 1 mps 758 mmHg 72%
02:00 +24°C° 0 mm 1 mps 758 mmHg 76%
03:00 +23°C° 0 mm 1 mps 758 mmHg 79%
04:00 +23°C° 0 mm 1 mps 758 mmHg 83%
05:00 +24°C° 0 mm 1 mps 758 mmHg 78%
06:00 +25°C° 0 mm 1 mps 758 mmHg 72%
07:00 +26°C° 0 mm 1 mps 758 mmHg 67%
08:00 +28°C° 0 mm 2 mps 758 mmHg 59%
09:00 +30°C° 0 mm 2 mps 758 mmHg 52%
10:00 +33°C° 0 mm 3 mps 758 mmHg 44%
11:00 +33°C° 0 mm 4 mps 758 mmHg 44%
12:00 +33°C° 0 mm 4 mps 758 mmHg 43%
13:00 +34°C° 0 mm 5 mps 758 mmHg 43%
14:00 +33°C° 0 mm 6 mps 757 mmHg 42%
15:00 +33°C° 0 mm 6 mps 757 mmHg 42%
16:00 +33°C° 0 mm 6 mps 757 mmHg 41%
17:00 +30°C° 0 mm 6 mps 757 mmHg 47%
18:00 +29°C° 0 mm 5 mps 757 mmHg 52%
19:00 +27°C° 0 mm 4 mps 757 mmHg 58%
20:00 +26°C° 0 mm 4 mps 757 mmHg 63%
21:00 +25°C° 0 mm 4 mps 757 mmHg 69%
22:00 +22°C° 0 mm 3 mps 757 mmHg 75%
23:00 +22°C° 0 mm 3 mps 757 mmHg 75%

6 August, Friday

Time Temperature Precipitation Wind Pressure Humidity
00:00 +22°C° 0 mm 3 mps 757 mmHg 74%
01:00 +21°C° 0 mm 2 mps 757 mmHg 74%
02:00 +21°C° 0 mm 3 mps 757 mmHg 71%
03:00 +21°C° 0 mm 3 mps 757 mmHg 68%
04:00 +20°C° 0 mm 3 mps 757 mmHg 65%
05:00 +22°C° 0 mm 3 mps 757 mmHg 61%
06:00 +24°C° 0 mm 2 mps 757 mmHg 56%
07:00 +26°C° 0 mm 2 mps 758 mmHg 52%
08:00 +28°C° 0 mm 2 mps 758 mmHg 46%
09:00 +30°C° 0 mm 2 mps 758 mmHg 39%
10:00 +32°C° 0 mm 2 mps 758 mmHg 32%
11:00 +34°C° 0 mm 2 mps 758 mmHg 32%
12:00 +34°C° 0 mm 3 mps 758 mmHg 32%
13:00 +34°C° 0 mm 4 mps 758 mmHg 32%
14:00 +34°C° 0 mm 4 mps 758 mmHg 32%
15:00 +34°C° 0 mm 4 mps 757 mmHg 32%
16:00 +34°C° 0 mm 3 mps 757 mmHg 32%
17:00 +31°C° 0 mm 3 mps 757 mmHg 38%
18:00 +29°C° 0 mm 2 mps 757 mmHg 44%
19:00 +28°C° 0 mm 1 mps 757 mmHg 50%
20:00 +26°C° 0 mm 1 mps 757 mmHg 54%
21:00 +25°C° 0 mm 1 mps 758 mmHg 58%
22:00 +24°C° 0 mm 1 mps 758 mmHg 62%
23:00 +23°C° 0 mm 1 mps 758 mmHg 62%
Show more